Weather in Levintsy

Ukraine / Chernovtci District     48°24′28″N   26°36′29″E
temp.,
°C
wind,
m/s
gust,
m/s
humid.,
%
clouds,
%
prec.,
mm/h
press.,
hPa
HPBL,
m
12 august, fri
fri1200:00+17n2281100 0.0 101928
03:00+17nw2384100 0.0 102053
06:00+17nw378569 0.1 1019224
09:00+18nw468097 0.1 1019344
12:00+22n6774100 1.6 1019853
15:00+20nne4885100 3.2 1018265
18:00+21nne588128 1.1 1017511
21:00+18n359178 1.6 1017132
13 august, sat
sat1300:00+17nnw229469 0.0 101725
03:00+16nw229512 0.0 101630
06:00+17nnw3693100 0.0 1015183
09:00+18nnw4690100 0.0 1014348
12:00+23nnw3472100 0.0 1013897
15:00+26nne4558100 0.9 10111383
18:00+27n3454100 0.1 10101075
21:00+21nnw488157 0.1 1009193
14 august, sun
sun1400:00+19nw3494100 3.6 101096
03:00+18nnw3596100 3.8 1009101
06:00+17nw3595100 0.3 1008106
09:00+20nnw4585100 0.4 1008313
12:00+22nne3474100 0.1 1008503
15:00+25n3564100 0.1 1008741
18:00+27ne444917 0.0 10071420
21:00+18s2592100 3.8 1008120
15 august, mon
mon1500:00+18e118854 0.8 100811
03:00+17n2290100 1.0 100714
06:00+17nnw1186100 0.2 100711
09:00+20n1174100 0.3 1007165
12:00+25nw2155100 0.0 1007693
15:00+28nnw1147100 0.0 10061162
18:00+28n014529 0.0 10051197
21:00+23wsw33665 0.0 100640
16 august, tue
tue1600:00+20w127125 0.0 100711
03:00+18nw11775 0.9 100611
06:00+17w11785 0.0 100711
09:00+22w34715 0.0 1008304
12:00+27nw12485 0.0 10071115
15:00+30w34385 0.0 10072153
18:00+31wsw253676 0.0 10062337
21:00+19sse238996 2.8 100940